Time,TemperatureF,DewpointF,PressureIn,WindDirection,WindDirectionDegrees,WindSpeedMPH,WindSpeedGustMPH,Humidity,HourlyPrecipIn,Conditions,Clouds,dailyrainin,SoftwareType,DateUTC
2013-02-04 00:09:00,24.7,21.0,29.72,WNW,288,1.0,3.0,87,0.00,,,0.00,weatherlink.com 1.10,2013-02-04 05:09:00,
2013-02-04 00:24:00,24.8,22.0,29.73,WSW,257,2.0,3.0,87,0.00,,,0.00,weatherlink.com 1.10,2013-02-04 05:24:00,
2013-02-04 00:39:00,24.8,22.0,29.73,West,274,1.0,2.0,87,0.00,,,0.00,weatherlink.com 1.10,2013-02-04 05:39:00,
2013-02-04 00:55:00,24.7,22.0,29.72,WSW,244,1.0,4.0,88,0.00,,,0.00,weatherlink.com 1.10,2013-02-04 05:55:00,
2013-02-04 01:10:00,24.7,22.0,29.73,WSW,253,2.0,5.0,88,0.00,,,0.00,weatherlink.com 1.10,2013-02-04 06:10:00,
2013-02-04 01:25:00,24.7,22.0,29.73,West,265,2.0,4.0,88,0.00,,,0.00,weatherlink.com 1.10,2013-02-04 06:25:00,
2013-02-04 01:40:00,24.5,22.0,29.73,NNW,327,2.0,4.0,88,0.00,,,0.00,weatherlink.com 1.10,2013-02-04 06:40:00,
2013-02-04 01:55:00,24.2,21.0,29.73,NW,312,3.0,5.0,88,0.00,,,0.00,weatherlink.com 1.10,2013-02-04 06:55:00,
2013-02-04 02:10:00,24.0,21.0,29.73,WNW,285,2.0,5.0,88,0.00,,,0.00,weatherlink.com 1.10,2013-02-04 07:10:00,
2013-02-04 02:25:00,23.8,21.0,29.73,WNW,294,1.0,5.0,87,0.00,,,0.00,weatherlink.com 1.10,2013-02-04 07:25:00,
2013-02-04 02:40:00,23.6,20.0,29.72,WSW,253,5.0,6.0,86,0.00,,,0.00,weatherlink.com 1.10,2013-02-04 07:40:00,
2013-02-04 02:55:00,23.5,19.0,29.72,WNW,284,3.0,7.0,83,0.00,,,0.00,weatherlink.com 1.10,2013-02-04 07:55:00,
2013-02-04 03:10:00,23.2,18.0,29.72,West,262,2.0,7.0,81,0.00,,,0.00,weatherlink.com 1.10,2013-02-04 08:10:00,
2013-02-04 03:25:00,22.8,18.0,29.72,WNW,297,1.0,6.0,80,0.00,,,0.00,weatherlink.com 1.10,2013-02-04 08:25:00,
2013-02-04 03:40:00,22.5,17.0,29.72,WSW,238,2.0,6.0,78,0.00,,,0.00,weatherlink.com 1.10,2013-02-04 08:40:00,
2013-02-04 03:55:00,22.3,16.0,29.73,West,277,4.0,5.0,77,0.00,,,0.00,weatherlink.com 1.10,2013-02-04 08:55:00,
2013-02-04 04:10:00,22.1,16.0,29.73,West,269,0.0,5.0,76,0.00,,,0.00,weatherlink.com 1.10,2013-02-04 09:10:00,
2013-02-04 04:25:00,22.1,16.0,29.73,West,259,0.0,4.0,77,0.00,,,0.00,weatherlink.com 1.10,2013-02-04 09:25:00,
2013-02-04 04:40:00,21.9,16.0,29.73,West,276,0.0,4.0,78,0.00,,,0.00,weatherlink.com 1.10,2013-02-04 09:40:00,
2013-02-04 04:55:00,21.9,16.0,29.73,West,278,0.0,5.0,77,0.00,,,0.00,weatherlink.com 1.10,2013-02-04 09:55:00,
2013-02-04 05:10:00,22.0,15.0,29.73,WSW,249,1.0,5.0,74,0.00,,,0.00,weatherlink.com 1.10,2013-02-04 10:10:00,
2013-02-04 05:25:00,21.8,15.0,29.74,WNW,291,3.0,6.0,74,0.00,,,0.00,weatherlink.com 1.10,2013-02-04 10:25:00,
2013-02-04 05:40:00,21.5,15.0,29.74,West,262,1.0,5.0,75,0.00,,,0.00,weatherlink.com 1.10,2013-02-04 10:40:00,
2013-02-04 05:55:00,21.4,15.0,29.75,West,267,2.0,6.0,75,0.00,,,0.00,weatherlink.com 1.10,2013-02-04 10:55:00,
2013-02-04 06:10:00,21.6,15.0,29.75,WNW,285,4.0,9.0,75,0.00,,,0.00,weatherlink.com 1.10,2013-02-04 11:10:00,
2013-02-04 06:26:00,21.7,15.0,29.75,WNW,291,5.0,10.0,75,0.00,,,0.00,weatherlink.com 1.10,2013-02-04 11:26:00,
2013-02-04 06:41:00,21.9,15.0,29.76,WSW,240,3.0,8.0,74,0.00,,,0.00,weatherlink.com 1.10,2013-02-04 11:41:00,
2013-02-04 06:56:00,21.8,15.0,29.76,NW,307,3.0,8.0,74,0.00,,,0.00,weatherlink.com 1.10,2013-02-04 11:56:00,
2013-02-04 07:11:00,22.0,15.0,29.76,WNW,296,4.0,9.0,74,0.00,,,0.00,weatherlink.com 1.10,2013-02-04 12:11:00,
2013-02-04 07:26:00,22.2,15.0,29.77,WNW,294,7.0,7.0,73,0.00,,,0.00,weatherlink.com 1.10,2013-02-04 12:26:00,
2013-02-04 07:41:00,22.7,15.0,29.77,WSW,257,3.0,11.0,73,0.00,,,0.00,weatherlink.com 1.10,2013-02-04 12:41:00,
2013-02-04 07:56:00,23.3,15.0,29.77,SSW,204,3.0,12.0,71,0.00,,,0.00,weatherlink.com 1.10,2013-02-04 12:56:00,
2013-02-04 08:11:00,23.8,15.0,29.78,West,271,3.0,15.0,69,0.00,,,0.00,weatherlink.com 1.10,2013-02-04 13:11:00,
2013-02-04 08:26:00,24.3,15.0,29.78,NW,312,6.0,13.0,67,0.00,,,0.00,weatherlink.com 1.10,2013-02-04 13:26:00,
2013-02-04 08:41:00,24.7,14.0,29.78,NW,323,5.0,19.0,65,0.00,,,0.00,weatherlink.com 1.10,2013-02-04 13:41:00,
2013-02-04 08:56:00,25.4,14.0,29.78,WNW,287,2.0,14.0,63,0.00,,,0.00,weatherlink.com 1.10,2013-02-04 13:56:00,
2013-02-04 09:11:00,25.8,14.0,29.78,West,276,4.0,14.0,61,0.00,,,0.00,weatherlink.com 1.10,2013-02-04 14:11:00,
2013-02-04 09:26:00,26.1,13.0,29.78,WSW,255,4.0,16.0,58,0.00,,,0.00,weatherlink.com 1.10,2013-02-04 14:26:00,
2013-02-04 09:41:00,26.7,13.0,29.79,NNW,330,3.0,14.0,56,0.00,,,0.00,weatherlink.com 1.10,2013-02-04 14:41:00,
2013-02-04 09:56:00,27.0,12.0,29.79,NW,321,7.0,15.0,54,0.00,,,0.00,weatherlink.com 1.10,2013-02-04 14:56:00,
2013-02-04 10:11:00,27.1,12.0,29.79,NW,308,14.0,16.0,53,0.00,,,0.00,weatherlink.com 1.10,2013-02-04 15:11:00,
2013-02-04 10:26:00,27.5,12.0,29.79,NW,304,6.0,13.0,52,0.00,,,0.00,weatherlink.com 1.10,2013-02-04 15:26:00,
2013-02-04 10:41:00,27.8,12.0,29.79,WNW,295,8.0,13.0,51,0.00,,,0.00,weatherlink.com 1.10,2013-02-04 15:41:00,
2013-02-04 10:56:00,28.5,11.0,29.79,NNW,340,3.0,13.0,49,0.00,,,0.00,weatherlink.com 1.10,2013-02-04 15:56:00,
2013-02-04 11:11:00,28.5,10.0,29.79,WNW,290,4.0,13.0,45,0.00,,,0.00,weatherlink.com 1.10,2013-02-04 16:11:00,
2013-02-04 11:26:00,28.0,9.0,29.78,WNW,297,6.0,17.0,45,0.00,,,0.00,weatherlink.com 1.10,2013-02-04 16:26:00,
2013-02-04 11:41:00,28.5,9.0,29.78,West,276,4.0,15.0,44,0.00,,,0.00,weatherlink.com 1.10,2013-02-04 16:41:00,
2013-02-04 11:57:00,28.3,9.0,29.77,NNW,340,12.0,16.0,44,0.00,,,0.00,weatherlink.com 1.10,2013-02-04 16:57:00,
2013-02-04 12:12:00,28.2,8.0,29.77,West,260,13.0,17.0,42,0.00,,,0.00,weatherlink.com 1.10,2013-02-04 17:12:00,
2013-02-04 12:26:00,28.2,9.0,29.77,WSW,249,7.0,16.0,45,0.00,,,0.00,weatherlink.com 1.10,2013-02-04 17:26:00,
2013-02-04 12:41:00,28.2,7.0,29.77,WNW,301,14.0,17.0,41,0.00,,,0.00,weatherlink.com 1.10,2013-02-04 17:41:00,
2013-02-04 12:56:00,28.4,8.0,29.76,West,274,6.0,14.0,43,0.00,,,0.00,weatherlink.com 1.10,2013-02-04 17:56:00,
2013-02-04 13:11:00,29.6,9.0,29.77,NE,56,6.0,11.0,43,0.00,,,0.00,weatherlink.com 1.10,2013-02-04 18:11:00,
2013-02-04 13:27:00,29.7,8.0,29.77,West,259,5.0,20.0,40,0.00,,,0.00,weatherlink.com 1.10,2013-02-04 18:27:00,
2013-02-04 13:41:00,30.2,10.0,29.77,NW,311,11.0,18.0,42,0.00,,,0.00,weatherlink.com 1.10,2013-02-04 18:41:00,
2013-02-04 13:56:00,29.1,9.0,29.77,NW,314,5.0,16.0,42,0.00,,,0.00,weatherlink.com 1.10,2013-02-04 18:56:00,
2013-02-04 14:12:00,29.2,9.0,29.77,WNW,288,5.0,19.0,42,0.00,,,0.00,weatherlink.com 1.10,2013-02-04 19:12:00,
2013-02-04 14:26:00,29.1,9.0,29.77,WNW,301,5.0,21.0,43,0.00,,,0.00,weatherlink.com 1.10,2013-02-04 19:26:00,
2013-02-04 14:41:00,28.5,8.0,29.78,WSW,257,6.0,15.0,43,0.00,,,0.00,weatherlink.com 1.10,2013-02-04 19:41:00,
2013-02-04 14:57:00,29.7,7.0,29.79,West,275,4.0,15.0,39,0.00,,,0.00,weatherlink.com 1.10,2013-02-04 19:57:00,
2013-02-04 15:12:00,28.6,6.0,29.79,SSW,200,7.0,18.0,39,0.00,,,0.00,weatherlink.com 1.10,2013-02-04 20:12:00,
2013-02-04 15:27:00,29.3,6.0,29.79,West,271,7.0,15.0,38,0.00,,,0.00,weatherlink.com 1.10,2013-02-04 20:27:00,
2013-02-04 15:42:00,29.5,7.0,29.79,NW,312,3.0,14.0,39,0.00,,,0.00,weatherlink.com 1.10,2013-02-04 20:42:00,
2013-02-04 15:57:00,29.0,7.0,29.79,NW,311,6.0,13.0,40,0.00,,,0.00,weatherlink.com 1.10,2013-02-04 20:57:00,
2013-02-04 16:12:00,28.6,7.0,29.79,NW,318,6.0,17.0,40,0.00,,,0.00,weatherlink.com 1.10,2013-02-04 21:12:00,
2013-02-04 16:27:00,28.1,8.0,29.80,NW,326,3.0,20.0,42,0.00,,,0.00,weatherlink.com 1.10,2013-02-04 21:27:00,
2013-02-04 16:42:00,27.7,8.0,29.80,South,183,6.0,15.0,44,0.00,,,0.00,weatherlink.com 1.10,2013-02-04 21:42:00,
2013-02-04 16:57:00,27.4,8.0,29.80,West,280,12.0,16.0,44,0.00,,,0.00,weatherlink.com 1.10,2013-02-04 21:57:00,
2013-02-04 17:12:00,27.1,7.0,29.81,NW,326,4.0,13.0,43,0.00,,,0.00,weatherlink.com 1.10,2013-02-04 22:12:00,
2013-02-04 17:27:00,26.7,7.0,29.82,WNW,285,3.0,17.0,44,0.00,,,0.00,weatherlink.com 1.10,2013-02-04 22:27:00,
2013-02-04 17:42:00,26.4,8.0,29.83,SE,128,2.0,10.0,45,0.00,,,0.00,weatherlink.com 1.10,2013-02-04 22:42:00,
2013-02-04 17:57:00,26.3,7.0,29.84,WNW,298,5.0,15.0,44,0.00,,,0.00,weatherlink.com 1.10,2013-02-04 22:57:00,
2013-02-04 18:12:00,26.2,6.0,29.84,West,270,5.0,14.0,43,0.00,,,0.00,weatherlink.com 1.10,2013-02-04 23:12:00,
2013-02-04 18:27:00,25.9,7.0,29.85,NNW,330,5.0,13.0,44,0.00,,,0.00,weatherlink.com 1.10,2013-02-04 23:27:00,
2013-02-04 18:42:00,25.7,6.0,29.86,WSW,242,2.0,10.0,44,0.00,,,0.00,weatherlink.com 1.10,2013-02-04 23:42:00,
2013-02-04 18:57:00,25.5,6.0,29.86,NW,304,3.0,13.0,44,0.00,,,0.00,weatherlink.com 1.10,2013-02-04 23:57:00,
2013-02-04 19:12:00,25.3,7.0,29.87,NW,304,2.0,9.0,46,0.00,,,0.00,weatherlink.com 1.10,2013-02-05 00:12:00,
2013-02-04 19:27:00,25.1,7.0,29.87,West,275,4.0,6.0,47,0.00,,,0.00,weatherlink.com 1.10,2013-02-05 00:27:00,
2013-02-04 19:42:00,24.8,8.0,29.88,West,281,3.0,7.0,49,0.00,,,0.00,weatherlink.com 1.10,2013-02-05 00:42:00,
2013-02-04 19:57:00,24.6,8.0,29.89,North,8,2.0,6.0,50,0.00,,,0.00,weatherlink.com 1.10,2013-02-05 00:57:00,
2013-02-04 20:12:00,24.3,8.0,29.89,WSW,256,5.0,6.0,51,0.00,,,0.00,weatherlink.com 1.10,2013-02-05 01:12:00,
2013-02-04 20:27:00,24.1,9.0,29.89,WNW,298,4.0,11.0,52,0.00,,,0.00,weatherlink.com 1.10,2013-02-05 01:27:00,
2013-02-04 20:42:00,23.8,9.0,29.89,WNW,303,4.0,8.0,53,0.00,,,0.00,weatherlink.com 1.10,2013-02-05 01:42:00,
2013-02-04 20:58:00,23.5,9.0,29.90,West,259,7.0,7.0,54,0.00,,,0.00,weatherlink.com 1.10,2013-02-05 01:58:00,
2013-02-04 21:12:00,23.4,8.0,29.91,WNW,290,4.0,10.0,53,0.00,,,0.00,weatherlink.com 1.10,2013-02-05 02:12:00,
2013-02-04 21:27:00,23.2,8.0,29.92,West,276,3.0,9.0,53,0.00,,,0.00,weatherlink.com 1.10,2013-02-05 02:27:00,
2013-02-04 21:42:00,23.0,8.0,29.92,WSW,240,6.0,7.0,53,0.00,,,0.00,weatherlink.com 1.10,2013-02-05 02:42:00,
2013-02-04 21:57:00,22.8,8.0,29.92,West,276,2.0,8.0,54,0.00,,,0.00,weatherlink.com 1.10,2013-02-05 02:57:00,
2013-02-04 22:12:00,22.7,8.0,29.91,West,271,4.0,7.0,54,0.00,,,0.00,weatherlink.com 1.10,2013-02-05 03:12:00,
2013-02-04 22:27:00,22.5,8.0,29.92,West,276,3.0,10.0,55,0.00,,,0.00,weatherlink.com 1.10,2013-02-05 03:27:00,
2013-02-04 22:42:00,22.2,9.0,29.92,West,259,3.0,8.0,56,0.00,,,0.00,weatherlink.com 1.10,2013-02-05 03:42:00,
2013-02-04 22:57:00,22.1,8.0,29.92,WSW,255,3.0,7.0,56,0.00,,,0.00,weatherlink.com 1.10,2013-02-05 03:57:00,
2013-02-04 23:12:00,21.9,8.0,29.93,NNW,343,1.0,6.0,56,0.00,,,0.00,weatherlink.com 1.10,2013-02-05 04:12:00,
2013-02-04 23:27:00,21.8,9.0,29.93,WNW,285,8.0,10.0,57,0.00,,,0.00,weatherlink.com 1.10,2013-02-05 04:27:00,
2013-02-04 23:42:00,21.7,9.0,29.93,WSW,252,3.0,6.0,58,0.00,,,0.00,weatherlink.com 1.10,2013-02-05 04:42:00,
2013-02-04 23:57:00,21.7,9.0,29.94,WNW,290,2.0,10.0,58,0.00,,,0.00,weatherlink.com 1.10,2013-02-05 04:57:00,